weather.gov     
National Weather Service

Regional Weather Roundup
NWS Homepage
This page is being discontinued on March 12, 2014.
The same data is available at this site. Please update your bookmarks.
Thank you, and we apologize for the inconvenience.
Please send an email to SR-SRH.Webmaster@noaa.gov with any concerns.


Current Version
Previous Version:    01  02  03  04  05  06  07  08  09  10  11  12  13  14  15  16  17  18  19  20  21  22  23  24  25  26  27  28  29  30  
   31  32  33  34  35  36  37  38  39  40  41  42  43  44  45  46  47  48  49  50  51  52  53  54  55  56  57  58  59  60  
[Printable]
711
ASUS46 KPDT 192210
RWRPDT
PENDLETON REGIONAL WEATHER ROUNDUP
NATIONAL WEATHER SERVICE PENDLETON OREGON
300 PM PDT SAT APR 19 2014

NOTE: FAIR INDICATES FEW OR NO CLOUDS BELOW 12,000 FEET WITH NO
SIGNIFICANT WEATHER AND/OR OBSTRUCTIONS TO VISIBILITY.

# INDICATES UNOFFICIAL STATION AND DATA

WAZ520-192310-
EAST SLOPES OF WASHINGTON CASCADES

CITY            SKY/WX      TMP DP  RH  WIND    PRES   REMARKS
#BUMPING DAM    N/A         39  N/A N/A S1      N/A
#CLE ELUM HS    N/A         48  36  63  W5      29.84R
#CLE ELUM 2NW   N/A         49  35  58  SW1     N/A
#CLE ELUM LAKE  N/A         46  37  71  W1      29.88F
#CLIFFDEL 2NW   N/A         46  33  60  W7      N/A
#EASTON DOT     N/A         44  39  82  CALM    N/A
#GLENWOOD       N/A         46  42  86  S1      29.97R
#MANASTASH CYN  N/A         50  36  58  CALM    29.84S
#NELSON         N/A         49  39  68  CALM    29.91S
#NELSON 3SW     N/A         44  39  82  CALM    30.11S
#NILE           N/A         53  37  54  W6      29.20R
#PEOH POINT     N/A         40  36  85  S1      N/A
#RONALD 2NW     N/A         47  38  71  SW1     29.76S
#TEANAWAY 4NE   N/A         50  39  66  SW3     N/A
#TROUT LAKE HS  N/A         50  44  80  S7      N/A
#TROUT LAKE 1NE N/A         49  44  83  W15     29.96S WCI 43
$$

WAZ521-192310-
SIMCOE HIGHLANDS

CITY            SKY/WX      TMP DP  RH  WIND    PRES   REMARKS
#BICKLETON HS   N/A         48  32  54  W17G35  29.94R WCI 42
#SATUS PASS DOT N/A         47  33  58  CALM    N/A
#CENTERVILLE 4W N/A         56  41  57  NW18    29.69R
#CENTERVILLE 1SWN/A         52  39  61  W21     29.93R
#GOLDENDALE 1NE N/A         53  34  48  SW7     N/A
#GOLDENDALE 1S  N/A         51  41  68  W15G28  28.11R
#GOLDENDALE 5WNWN/A         51  40  66  W13     29.96R
#GOODNOE HILLS  N/A         57  41  55  W24     29.86R
#LYLE 6NE       N/A         55  44  66  W17G26  29.93R
$$

WAZ026-192310-
KITTITAS VALLEY

CITY            SKY/WX      TMP DP  RH  WIND    PRES   REMARKS
ELLENSBURG AP   CLOUDY      58  38  47  NW13    29.85S
#ELLENSBURG CWU N/A         55  37  51  N2      29.83F
#ELLENSBURG 3NE N/A         53  39  59  N5      29.86R
#ELLENSBURG     N/A         58  40  51  W6      N/A
#ELLENSBURG 1E  N/A         55  36  49  S1      N/A
#KITTITAS 3S    N/A         56  40  55  W7      29.85F
#RYEGRASS DOT   N/A         54  28  36  SW23G37 N/A
#THORP 6N       N/A         48  38  68  N7      29.92S
$$

WAZ027-192310-
YAKIMA VALLEY

CITY            SKY/WX      TMP DP  RH  WIND    PRES   REMARKS
YAKIMA AIRPORT  MOCLDY      60  37  42  SW20G32 29.85S
YAKIMA-VAGABOND MOCLDY      58  36  44  SW23G30 29.87R
#COWICHE 1N     N/A         55  37  51  W10     30.01R
#DONALD 2NE     N/A         59  33  37  SE8     30.20R
#GRANDVIEW      N/A         62  33  34  W3      29.91R
#MABTON         N/A         64  37  37  SW17G37 29.88R
#MOXEE 2E       N/A         57  27  31  S23     29.80R
#NACHES 2SW     N/A         58  39  49  W14     29.85S
#TERRACE HTS    N/A         57  38  49  SW6     29.85S
#TOPPENISH      N/A         61  38  42  SW9G26  29.81R
#WAPATO 4NE     N/A         59  33  37  SE8     30.20R
#W YAKIMA       N/A         58  39  49  SW5     29.87R
#WHITE SWAN 5E  N/A         59  39  47  SW30G41 29.89R
#WILEY CITY 3W  N/A         58  30  34  SW12    29.85R
$$

WAZ028-192310-
LOWER COLUMBIA BASIN...WASHINGTON

CITY            SKY/WX      TMP DP  RH  WIND    PRES   REMARKS
HANFORD         LGT RAIN    66  30  26  SW18G31 29.84R
PASCO           PTCLDY      72  33  24  SW21G28 29.85S
PROSSER AWOS    N/A         63  36  36  SW28    29.91R
RICHLAND AWOS   MOCLDY      68  30  24  W17G26  29.84S
#BASIN CITY 5SW N/A         65  37  35  S8      29.85R
#BENTON CITY    N/A         66  34  30  SW13G24 29.75R
#CONNELL 5N     N/A         64  34  33  W8      29.86R
#ELTOPIA        N/A         69  39  33  SW7     29.82R
#ELTOPIA 6NW    N/A         62  37  39  SW7     28.82R
#KENNEWICK 3S   N/A         68  35  29  W12     29.86R
#PASCO-BROADMOORN/A         71  27  19  S16G26  29.72F
#PATERSON       N/A         63  37  38  SW7     29.85R
#PROSSER DOT    N/A         66  33  29  S14     N/A
#PROSSER        N/A         62  33  34  W17G26  29.88R
#SAGEMOOR 2W    N/A         66  38  36  S8      29.70S
#TOUCHET 2S     N/A         63  47  56  CALM    29.86R
#WEST PASCO     N/A         70  40  34  SW8     29.82F
$$

WAZ029-192310-
FOOTHILLS OF THE BLUES...WASHINGTON

CITY            SKY/WX      TMP DP  RH  WIND    PRES   REMARKS
WALLA WALLA AP  CLOUDY      62  35  36  S5      29.88S
#COLLEGE PLACE  N/A         69  44  40  E3      29.88S
#LOWDEN 2SE     N/A         60  42  51  SE8     29.83R
#PLEASANT VIEW 1N/A         62  33  34  S8      29.91R
#PRESCOTT       N/A         62  43  50  S3      29.87R
#SUDBURY        N/A         64  N/A N/A E2      N/A
#WHITMAN COLLEGEN/A         60  38  44  E2      29.92F
#WAITSBURG 8N   N/A         61  26  26  S13     29.71S
#WALLA WALLA 5E N/A         62  39  43  S14     N/A
#WHITMAN MISSIONN/A         62  44  52  E2      29.88S
$$

WAZ030-192310-
BLUE MOUNTAINS...WASHINGTON

CITY            SKY/WX      TMP DP  RH  WIND    PRES   REMARKS
$$

ORZ009-041-WAZ024-192310-
COLUMBIA RIVER GORGE

CITY            SKY/WX      TMP DP  RH  WIND    PRES   REMARKS
HOOD RIVER AP   CLOUDY      55  45  69  NW6     29.96S
THE DALLES AP   PTCLDY      65  37  35  W26G33  29.94R
#ARLINGTON AIRPON/A         58  41  53  W26     N/A
#ARLINGTON HS   N/A         61  40  46  SE21G29 29.83R
#CELILO DOT     N/A         60  36  41  SW12    N/A
#MARYHILL       N/A         57  41  55  NW1     N/A
#MARYHILL 2W    N/A         60  39  46  SE12    N/A
#MOSIER 1S      N/A         60  39  46  NW6     30.00S
#MURDOCK        N/A         60  46  60  W18G35  29.97R
#RUFUS DOT      N/A         60  37  42  NW15    N/A

$$

ORZ510-192310-
NORTH CENTRAL OREGON

CITY            SKY/WX      TMP DP  RH  WIND    PRES   REMARKS
#CHENOWITH 1W   N/A         51  38  61  W22     N/A
#COW CYN RST AREN/A         52  35  52  SW15G25 N/A
#GRASS VALLEY   N/A         50  36  58  SW3     N/A
#GRASS VALLEY 1SN/A         51  38  61  W18G26  29.99R
#KENT DOT       N/A         51  35  54  W25     N/A
#MAUPIN SCHOOL  N/A         58  38  47  W14G29  30.02R
#SHANIKO 5WSW   N/A         52  28  39  SW17    N/A
#SHANIKO 4NW    N/A         50  35  56  W16G24  29.94R
#TYGH VALLEY 2NEN/A         58  40  51  SW17    29.96R
#WASCO DOT      N/A         56  40  55  W10     N/A
#WASCO 5NE      N/A         53  44  71  CALM    29.95R
$$

ORZ511-192310-
CENTRAL OREGON

CITY            SKY/WX      TMP DP  RH  WIND    PRES   REMARKS
BEND AIRPORT    PTCLDY      55  32  41  SW18G28 29.99R
MADRAS AIRPORT  CLOUDY      55  36  49  W22G26  29.98R
REDMOND AIRPORT CLOUDY      54  33  45  NW16G25 29.98R
#BEND 6E        N/A         54  30  40  CALM    29.94R
#BEND 1SW       N/A         53  31  43  W2      N/A
#BEND-AWBREY    N/A         54  34  47  E2      29.97R
#BEND-KIM LN    N/A         57  35  43  SW10G25 29.96R
#CROOKED RVR RANN/A         52  36  54  W16G24  29.98R
#CULVER         N/A         53  34  48  W16G29  29.95R
#LAKE BILLY CHINN/A         54  18  24  W8      30.06R
#POWELL BUTTE   N/A         57  37  47  NW5     29.63R
#PRINEVILLE AIR N/A         53  36  52  W24G35  29.94R
#PRINEVILLE 3N  N/A         52  37  56  SW10    29.93R
#WARM SPRINGS   N/A         61  38  42  E7      29.95R


ORZ509-192310-
EAST SLOPES OF OREGON CASCADES

CITY            SKY/WX      TMP DP  RH  WIND    PRES   REMARKS
#BLUE BOX PASS  N/A         41  -9  11  W3      N/A
#CAMP SHERMAN   N/A         49  37  63  S1      30.08R
#LA PINE DOT    N/A         53  27  36  W17G30  N/A
#LA PINE 4NW    N/A         51  34  52  W7      30.04R
#LAVA BUTTE DOT N/A         51  31  46  SW6     N/A
#SISTERS AIRPOR N/A         48  41  77  N14G26  30.00R WCI 42
#SISTERS ODOT   N/A         48  N/A N/A CALM    N/A
#SISTERS 3N     N/A         52  32  46  W8      30.04R
#SUNRIVER       N/A         50  35  56  W8      29.89R
#SUNRIVER AP    N/A         50  35  56  W8G24   29.98R
#SUTTLE LK DOT  N/A         42  36  79  NE2     N/A
#TUMALO 3W      N/A         55  33  43  W9      29.82R
#WANOGA BUTTE D N/A         38  31  76  W17G26  N/A    WCI 29

$$

ORZ044-192310-
LOWER COLUMBIA BASIN...OREGON

CITY            SKY/WX      TMP DP  RH  WIND    PRES   REMARKS
HERMISTON       SUNNY       67  36  32  N3      29.86S
#BOARDMAN SCHOOLN/A         65  37  35  NW7     29.87R
#BOARDMAN 3W    N/A         68  41  37  W9      29.62R
#BOARDMAN 8SW   N/A         63  42  46  W21     29.90R
#IONE SCHOOL    N/A         61  38  42  W15G29  29.89R
#IRRIGON 4NW    N/A         68  34  28  S8      N/A
#UMATILLA SCHOOLN/A         68  45  44  W7      29.90R
#UMATILLA       N/A         67  35  30  W3      29.83S
$$

ORZ507-192310-
NORTHERN FOOTHILLS OF THE BLUES

CITY            SKY/WX      TMP DP  RH  WIND    PRES   REMARKS
PENDLETON AIRPT PTCLDY      65  33  30  N7      29.86S
#ADAMS 3WNW     N/A         62  36  38  N1      29.87R
#ATHENA         N/A         61  37  41  CALM    29.91S
#HELIX SCHOOL   N/A         61  31  32  SW5     29.88R
#HELIX 3N       N/A         60  34  37  W10     29.85R
#M-F FERNDALE   N/A         62  42  48  CALM    29.86F
#M-F GROVE ELEM N/A         59  37  44  E1      29.86S
#M-FREEWATER 5SEN/A         60  42  51  E7      29.87F
#PDT AQUATIC CTRN/A         65  37  35  CALM    29.87S
#PENDLETON DNTN N/A         66  38  36  S1      29.83S
#PDT SUNRIDGE   N/A         64  37  37  E2      29.87F
#PILOT ROCK     N/A         64  39  40  CALM    29.88S
#TUTUILLA       N/A         59  36  42  E3      29.81S
#UMAPINE 2E     N/A         60  39  46  E5      29.80S
#WESTON SCHOOL  N/A         60  32  35  W1      29.92S

$$

ORZ508-192310-
SOUTHERN FOOTHILLS OF THE BLUES

CITY            SKY/WX      TMP DP  RH  WIND    PRES   REMARKS
LEXINGTON       MOSUNNY     63  37  38  NW26G33 29.92R
#AJAX           N/A         53  35  50  N15     29.95R
#CONDON SCHOOL  N/A         54  37  52  W22G33  29.89R
#CONDON 5W      N/A         52  34  50  W22G35  29.89R
#FOSSIL SCHOOL  N/A         58  35  42  W15G30  29.89R
#HEPPNER 4NE    N/A         61  37  41  NW14G26 29.88R
#LEXINGTON 2SE  N/A         65  39  38  NW22G30 29.86R
#MIKKALO        N/A         57  36  45  W15     29.92R
#OLEX 4N        N/A         58  40  51  W23G31  29.91R
#RUGGS 5NE      N/A         63  28  26  W26     30.11R
#RUGGS 2SW      N/A         61  35  38  NW26G35 29.94R

$$

ORZ502-503-192310-
BLUE MOUNTAINS

CITY            SKY/WX      TMP DP  RH  WIND    PRES   REMARKS
MEACHAM         CLOUDY      56  28  34  VRB5    29.90R
#BATTLE MTN DOT N/A         58  37  45  N3      N/A
#HARDMAN 10S    N/A         59  26  28  S15     29.96S
#HEPPNER 15SE   N/A         58  29  33  W5      29.80S
#LADD CYN SMT   N/A         64  22  20  SE16    N/A
#LADD CREEK ODOTN/A         66  32  28  S6      N/A
#LONG CREEK HS  N/A         61  33  35  NW14    29.82R
#N POWDER DOT   N/A         64  34  33  SE21G29 N/A
#TOLLGATE       N/A         48  35  60  NE2     29.88R
#TOLLGATE 9W    N/A         58  39  49  W9      N/A
#TROY SCHOOL    N/A         74  38  27  CALM    29.63F
#UKIAH          N/A         62  39  43  N12     29.92F
#WESTON 4E      N/A         55  32  41  S2      29.83R
$$

ORZ505-192310-
JOHN DAY BASIN

CITY            SKY/WX      TMP DP  RH  WIND    PRES   REMARKS
JOHN DAY        PTCLDY      70  28  21  W23G32  29.85S
#JOHN DAY KJDY  N/A         71  29  21  W9      29.81S
#DAYVILLE SCHOOLN/A         72  22  15  N9G24   29.83R
#MONUMENT HS    N/A         70  26  19  NW13G25 29.81R
#MT. VERNON 5SE N/A         67  27  22  SW5     29.82R
$$

ORZ506-192310-
OCHOCO AND JOHN DAY HIGHLANDS

CITY            SKY/WX      TMP DP  RH  WIND    PRES   REMARKS
#ANTONE         N/A         32  N/A N/A CALM    N/A
#BUCK CREEK DOT N/A         65  30  27  SW16    N/A
#HORSE RIDGE DO N/A         55  30  38  W16G25  N/A
#KEYES SMT DOT  N/A         60  20  21  W10     N/A
#PAULINA SCHOOL N/A         67  18  15  SW13    29.90R
#PINE MTN OBS   N/A         47  28  47  W9      N/A
#PRAIRIE CITY   N/A         69  22  17  W6      29.70F
#SENECA 9NW     N/A         66  28  24  W3      29.89S
$$

ORZ049-192310-
GRANDE RONDE VALLEY

CITY            SKY/WX      TMP DP  RH  WIND    PRES   REMARKS
LA GRANDE       MOSUNNY     70  30  22  SW15    29.82R
#COVE           N/A         69  32  25  SE5     29.76S
#COVE SCHOOL    N/A         69  26  20  E5      29.81F
#COVE 6NW       N/A         69  32  25  SE3     29.88S
#ELGIN 3N       N/A         66  30  26  W6      29.58R
#ELGIN 1E       N/A         70  34  26  S5      N/A
#IMBLER SCHOOL  N/A         68  35  29  CALM    29.81R
#ISLAND CITY 4N N/A         67  41  39  W7      29.79S
#LADD CYN DOT   N/A         67  27  22  S7      N/A
#LA GRANDE ELEM N/A         65  33  30  NW12    29.84R
#UNION 1S       N/A         69  33  26  S6      29.73F
$$

ORZ050-192310-
WALLOWA COUNTY

CITY            SKY/WX      TMP DP  RH  WIND    PRES   REMARKS
#ENTERPRISE HS  N/A         67  26  21  NW1     29.85S
#IMNAHA SCHOOL  N/A         73  19  13  S12G26  29.69F
#JOSEPH 3N      N/A         66  34  30  S14G24  29.89R
#LOSTINE        N/A         68  23  18  E2      29.66F
#MT HOWARD 8000 N/A         43  16  33  S9      29.96R
#PROMISE 1S     N/A         62  33  34  E10     29.93S
#SHEEP RDG 7000 N/A         48  14  25  CALM    29.93F
#WALLOWA SCHOOL N/A         69  26  20  NE1     30.78F



$$




U.S. Dept. of Commerce
NOAA National Weather Service
1325 East West Highway
Silver Spring, MD 20910
E-mail: w-nws.webmaster@noaa.gov
Page last modified: May 16, 2007
NATIONAL WEATHER SERVICE: for Safety, for Work, for Fun - FOR LIFE